Zurück zum Katalog

SITRO-AIS-22

AktivKommunikationSSO
NORAD 61740·PAYLOAD·🇷🇺 Russia
Dieser Satellitenname wurde noch nicht durch offizielle Quellen bestätigt.

Gestartet Nov 4, 2024 von Vostochny Cosmodrome

Loading…

Nächste Überflüge (nächste 24 Stunden)

TLE

AktuellSource: Space-Track

Epoche: Sep 14, 2026, 20:38 UTC

1 61740U 24199F   26257.86020741  .00001685  00000-0  15372-3 0  9994
2 61740  97.3216  90.0982 0013656 116.6164 243.6459 14.96253655145326

Verfolge SITRO-AIS-22 in Echtzeit mit AllMySat

Download on the App Store